Location: Powder Track
(41.8531°N, 72.3584°W)
Time: 00:12:18
(UTC+00:00)

Vanguard 2 Rocket - Pass Details

Date: 02 August 2021
Orbit: 556 x 3324 km, 32.9° (Epoch: 22 September)

Event Time Altitude Azimuth Distance (km) Brightness Sun altitude
Rises 11:11:08 0° 223° (SW) 3,202 9.2 14.5°
Reaches altitude 10° 11:14:44 10° 199° (SSW) 2,004 8.4 15.1°
Maximum altitude 11:17:09 14° 164° (SSE) 1,614 8.4 15.6°
Drops below altitude 10° 11:19:23 10° 130° (SE) 1,831 9.2 16.0°
Sets 11:22:25 0° 104° (ESE) 2,746 10.7 16.5°
